Find Starlink 30378

NORAD ID: 57787 Int'l Des: 2023-134 Owner: SPXS Country: US Constellation: starlink operational
LEOCIRCULAR

Live Position

Loading 3D Globe...

About Starlink 30378

Description loading...

Upcoming Passes

Passes for default location (London). Set your location on the main map for personalized predictions.

Altitude History

Loading altitude history...

Two-Line Element Set

1 57787U 23134S 26103.72870631 .00001535 00000-0 65302-4 0 9997
2 57787 42.9958 356.7637 0000457 6.5690 353.5167 15.27568592144865
Epoch: Apr 13, 2026 • Age: 15 hours

Current Status

Altitude 482.4 km
Velocity 7.63 km/s
Sub-Earth Point 9.47°N, 164.54°W
Launch Date Sep 4, 2023
Age 2.6 years
Type internet

Technical Details

Classification Payload
Mass 730.00 kg
Dry Mass 700.00 kg
Total Mass 730.00 kg
Length 0.30 m
Diameter 4.10 m
Span 29.00 m
Shape Box + pan
Manufacturer SPXS
Bus Type Starlink V2M
Phase Status In Orbit
Owner/State SPXS/US

Most Searched